Location: Sagn�
(15.2046°N, 12.7898°W)
Time: 12:50:43
(UTC+00:00)

Delta 2 Rocket - Pass Details

Date: 08 May 2021
Orbit: 415 x 802 km, 35.6° (Epoch: 14 June)

Event Time Altitude Azimuth Distance (km) Brightness Sun altitude
Rises 19:53:03 0° 229° (SW) 3,224 7.6 -10.4°
Reaches altitude 10° 19:55:39 10° 227° (SW) 2,257 6.8 -11.0°
Maximum altitude 20:00:56 68° 145° (SE) 747 3.8 -12.2°
Drops below altitude 10° 20:05:41 10° 62° (ENE) 2,026 5.8 -13.3°
Enters shadow 20:06:18 - 61° (ENE) 2,257 6.1 -13.4°
